| time (UTC) | temp F | wind direction | speed knots | gust knots | rain 1hr in | rain 24hr in | rain mn in | humidity % | barometer mb |
| 20260504050001 | 68 | 360 | 9.6 | 21.7 | 0.00 | 0.00 | 0.00 | 53 | 1008.6 |
| 20260504044501 | 68 | 355 | 9.6 | 23.5 | 0.00 | 0.00 | 0.00 | 52 | 1008.5 |
| 20260504043112 | 68 | 326 | 7.8 | 20.9 | 0.00 | 0.00 | 0.00 | 52 | 1008.6 |
| 20260504041600 | 68 | 360 | 11.3 | 23.5 | 0.00 | 0.00 | 0.00 | 51 | 1008.6 |
| 20260504040114 | 68 | 360 | 7.0 | 21.7 | 0.00 | 0.00 | 0.00 | 52 | 1008.8 |
| 20260504034554 | 67 | 331 | 8.7 | 17.4 | 0.00 | 0.00 | 0.00 | 52 | 1008.8 |
| 20260504033053 | 67 | 309 | 9.6 | 21.7 | 0.00 | 0.00 | 0.00 | 52 | 1009.2 |
| 20260504031556 | 67 | 341 | 6.1 | 24.3 | 0.00 | 0.00 | 0.00 | 53 | 1009.4 |
| 20260504030049 | 67 | 343 | 7.8 | 14.8 | 0.00 | 0.00 | 0.00 | 56 | 1009.5 |
| 20260504024549 | 66 | 360 | 4.3 | 10.4 | 0.00 | 0.00 | 0.00 | 58 | 1009.7 |
| 20260504023057 | 66 | 327 | 6.1 | 14.8 | 0.00 | 0.00 | 0.00 | 57 | 1009.9 |
| 20260504021550 | 67 | 292 | 4.3 | 18.2 | 0.00 | 0.00 | 0.00 | 56 | 1010.0 |
| 20260504020046 | 67 | 348 | 7.0 | 15.6 | 0.00 | 0.00 | 0.00 | 56 | 1010.1 |
| 20260504014553 | 66 | 314 | 7.0 | 14.8 | 0.00 | 0.00 | 0.00 | 58 | 1010.3 |
| 20260504013039 | 66 | 314 | 4.3 | 18.2 | 0.00 | 0.00 | 0.00 | 58 | 1010.5 |
| 20260504011540 | 65 | 327 | 9.6 | 18.2 | 0.00 | 0.00 | 0.00 | 57 | 1010.6 |
| 20260504010037 | 65 | 290 | 7.0 | 16.5 | 0.00 | 0.00 | 0.00 | 58 | 1010.7 |
| 20260504004544 | 65 | 336 | 3.5 | 13.0 | 0.00 | 0.00 | 0.00 | 59 | 1010.7 |
| 20260504003036 | 65 | 335 | 3.5 | 17.4 | 0.00 | 0.00 | 0.00 | 60 | 1010.8 |
| 20260504001537 | 65 | 355 | 2.6 | 13.9 | 0.00 | 0.00 | 0.00 | 61 | 1010.7 |
| 20260504000032 | 64 | 346 | 5.2 | 15.6 | 0.00 | 0.00 | 0.00 | 62 | 1010.7 |
| 20260503234533 | 63 | 328 | 4.3 | 13.9 | 0.00 | 0.00 | 0.00 | 64 | 1010.8 |
| 20260503233026 | 62 | 298 | 4.3 | 12.2 | 0.00 | 0.00 | 0.00 | 66 | 1010.8 |
| 20260503231524 | 61 | 344 | 7.0 | 15.6 | 0.00 | 0.00 | 0.00 | 66 | 1011.0 |
| 20260503230022 | 60 | 11 | 4.3 | 10.4 | 0.00 | 0.00 | 0.00 | 66 | 1011.1 |
| 20260503224520 | 60 | 300 | 3.5 | 11.3 | 0.00 | 0.00 | 0.00 | 67 | 1011.2 |
| 20260503223019 | 59 | 336 | 1.7 | 6.1 | 0.00 | 0.00 | 0.00 | 68 | 1011.4 |
| 20260503221518 | 58 | 344 | 1.7 | 8.7 | 0.00 | 0.00 | 0.00 | 71 | 1011.4 |
| 20260503220018 | 58 | 348 | 1.7 | 6.1 | 0.00 | 0.00 | 0.00 | 73 | 1011.3 |
| 20260503214517 | 57 | 349 | 1.7 | 6.1 | 0.00 | 0.00 | 0.00 | 73 | 1011.2 |
| 20260503213019 | 57 | 5 | 1.7 | 6.1 | 0.00 | 0.00 | 0.00 | 73 | 1011.1 |
| 20260503211517 | 57 | 12 | 0.9 | 4.3 | 0.00 | 0.00 | 0.00 | 72 | 1011.1 |
| 20260503210016 | 57 | 351 | 1.7 | 4.3 | 0.00 | 0.00 | 0.00 | 73 | 1011.2 |
| 20260503204525 | 56 | 10 | 2.6 | 7.0 | 0.00 | 0.00 | 0.00 | 74 | 1011.0 |
| 20260503203016 | 56 | 355 | 1.7 | 6.1 | 0.00 | 0.00 | 0.00 | 76 | 1010.8 |
| 20260503201515 | 56 | 355 | 2.6 | 7.0 | 0.00 | 0.00 | 0.00 | 78 | 1010.7 |
| 20260503200018 | 55 | 22 | 1.7 | 5.2 | 0.00 | 0.00 | 0.00 | 79 | 1010.8 |
| 20260503194513 | 55 | 334 | 0.9 | 2.6 | 0.00 | 0.00 | 0.00 | 79 | 1010.8 |
| 20260503193029 | 55 | 27 | 0.0 | 0.0 | 0.00 | 0.00 | 0.00 | 79 | 1010.9 |
| 20260503191509 | 55 | 355 | 0.0 | 0.0 | 0.00 | 0.00 | 0.00 | 78 | 1011.1 |
| 20260503190009 | 55 | 22 | 0.0 | 0.0 | 0.00 | 0.00 | 0.00 | 77 | 1011.3 |
| 20260503184507 | 56 | 22 | 0.0 | 0.0 | 0.00 | 0.00 | 0.00 | 77 | 1011.4 |
| 20260503183008 | 56 | 18 | 0.0 | 0.0 | 0.00 | 0.00 | 0.00 | 76 | 1011.2 |
| 20260503181505 | 57 | 348 | 0.0 | 5.2 | 0.00 | 0.00 | 0.00 | 75 | 1011.4 |
| 20260503180006 | 57 | 5 | 1.7 | 6.1 | 0.00 | 0.00 | 0.00 | 76 | 1011.5 |
| 20260503174502 | 57 | 5 | 1.7 | 7.0 | 0.00 | 0.00 | 0.00 | 76 | 1011.5 |
| 20260503173004 | 57 | 360 | 1.7 | 6.1 | 0.00 | 0.00 | 0.00 | 76 | 1011.7 |
| 20260503171503 | 56 | 360 | 1.7 | 5.2 | 0.00 | 0.00 | 0.00 | 77 | 1011.7 |
| 20260503081525 | 60 | 345 | 0.0 | 2.6 | 0.00 | 0.00 | 0.00 | 84 | 1010.7 |
| 20260503071518 | 62 | 267 | 0.9 | 7.0 | 0.00 | 0.00 | 0.00 | 84 | 1010.2 |
| 20260503054514 | 63 | 316 | 0.9 | 7.0 | 0.00 | 0.00 | 0.00 | 85 | 1010.0 |
| 20260503053014 | 65 | 252 | 1.7 | 7.0 | 0.00 | 0.00 | 0.00 | 83 | 1009.9 |